Estación municipal de Susqueda - Veïnat del Coll (La Selva, )

Consulta los datos en tiempo real de la estación municipal de Susqueda - Veïnat del Coll





Hora UTC 04:45
Temperatura 8.1 ºC
Humedad 77.0 %
Presión 1011.7 hPa
Pluja 0.0 mm
Velocidad viento 3.1 km/h
Dirección viento SE
Radiación solar 7.0 W/m²

Datos diarios 2026-05-05



Hora UTC (invierno +1h; verano +2h)
Temperatura (ºC) Humedad (%) Presión (hPa) Velocidad viento (km/h) Precipitación (mm) Radiación solar (W/m²)
Hora UTC Aire Humedad Presión Vel. Dir. Vel. Max Dir. Intent. máx 5 min. Rad. Sol.
00:05 7.2 97.2 1012.1 5.2 SW 5.2 WSW 0.0 0.1
00:10 7.3 97.4 1012.1 5.9 WSW 19.8 WSW 0.0 0.1
00:15 7.3 97.5 1012.0 6.2 SW 18.7 W 0.0 0.1
00:20 7.2 97.7 1012.0 5.3 SW 15.5 SW 0.0 0.1
00:25 7.2 97.9 1012.0 7.7 WSW 21.5 WNW 0.0 0.1
00:30 7.3 98.0 1012.0 7.5 WSW 21.5 WNW 0.0 0.1
00:35 7.3 98.1 1011.9 8.3 WSW 20.5 W 0.0 0.1
00:40 7.3 98.2 1011.9 7.3 WSW 18.7 WSW 0.0 0.1
00:45 7.2 98.3 1011.9 8.3 W 25.8 WNW 0.0 0.1
00:50 7.2 98.3 1011.9 7.5 WSW 19.4 W 0.0 0.1
00:55 7.2 98.3 1011.9 6.5 WSW 19.8 W 0.0 0.1
01:00 7.1 98.3 1011.9 6.3 WSW 19.4 W 0.0 0.1
01:05 7.1 98.4 1011.8 5.6 WSW 14.5 WSW 0.0 0.1
01:10 7.0 98.4 1011.8 4.7 SW 11.6 SSW 0.0 0.1
01:15 7.0 98.4 1011.8 3.8 SW 8.8 WSW 0.0 0.1
01:20 7.0 98.5 1011.8 4.7 SW 15.5 SW 0.0 0.1
01:25 6.9 98.4 1011.8 3.0 SW 7.8 SW 0.0 0.1
01:30 6.9 98.5 1011.8 3.9 SSW 16.2 W 0.0 0.1
01:35 6.9 98.5 1011.8 4.3 SW 13.8 WSW 0.0 0.1
01:40 7.0 98.5 1011.8 6.4 WSW 17.6 W 0.0 0.1
01:45 7.0 98.4 1011.8 5.3 SW 17.3 SSW 0.0 0.1
01:50 7.0 98.3 1011.8 5.9 WSW 18.7 W 0.0 0.1
01:55 7.0 98.1 1011.6 5.7 WSW 17.6 W 0.0 0.1
02:00 7.0 98.0 1011.6 7.3 WSW 18.0 WSW 0.0 0.1
02:05 7.0 97.8 1011.6 5.4 WSW 14.5 WSW 0.0 0.1
02:10 6.9 97.8 1011.6 7.4 WSW 18.7 SSW 0.0 0.1
02:15 6.9 97.6 1011.6 5.8 WSW 19.4 SSW 0.0 0.1
02:20 6.8 97.5 1011.6 5.8 SW 16.2 W 0.0 0.1
02:25 6.8 97.6 1011.6 6.5 WSW 17.6 WNW 0.0 0.1
02:30 6.8 97.6 1011.6 6.3 WSW 22.2 W 0.0 0.1
02:35 6.7 97.6 1011.6 7.2 WSW 22.2 W 0.0 0.1
02:40 6.7 97.6 1011.6 6.9 WSW 26.5 SW 0.0 0.1
02:45 6.7 97.6 1011.5 8.0 WSW 22.9 WSW 0.0 0.1
02:50 6.6 97.8 1011.5 6.9 WSW 20.1 W 0.0 0.1
02:55 6.6 97.9 1011.5 7.2 WSW 20.1 WNW 0.0 0.1
03:00 6.6 97.9 1011.5 7.2 WSW 24.0 WNW 0.0 0.1
03:05 6.6 97.9 1011.5 7.5 WSW 21.9 WSW 0.0 0.1
03:10 6.5 97.9 1011.5 6.7 WSW 21.2 SW 0.0 0.1
03:15 6.5 97.9 1011.6 9.2 WSW 22.9 W 0.0 0.1
03:20 6.5 97.8 1011.6 6.8 SW 16.9 SW 0.0 0.1
03:25 6.6 97.3 1011.6 4.7 SW 14.1 WNW 0.0 0.1
03:30 6.7 96.5 1011.6 5.5 SSW 10.9 S 0.0 0.1
03:35 6.7 95.3 1011.6 4.8 SSW 13.8 W 0.0 0.1
03:40 6.8 93.7 1011.6 4.2 SSW 14.5 SSW 0.0 0.1
03:45 6.8 92.0 1011.6 4.7 SSW 13.1 SW 0.0 0.1
03:50 7.0 90.4 1011.6 5.3 SSW 11.6 WSW 0.0 0.1
03:55 7.1 88.6 1011.6 6.7 SSW 18.7 WSW 0.0 0.1
04:00 7.2 88.0 1011.6 4.4 SW 13.1 NW 0.0 0.1
04:05 7.2 87.4 1011.6 4.9 SW 13.4 SW 0.0 0.1
04:10 7.3 86.4 1011.6 5.7 SSW 16.2 S 0.0 0.1
04:15 7.4 84.8 1011.6 5.1 SW 11.3 SW 0.0 0.1
04:20 7.4 84.4 1011.6 4.2 SSW 12.4 S 0.0 0.2
04:25 7.5 83.3 1011.6 4.1 S 16.6 SSW 0.0 0.5
04:30 7.8 80.1 1011.6 6.0 S 20.1 S 0.0 1.3
04:35 8.0 78.8 1011.7 4.8 SE 9.9 ENE 0.0 2.5
04:40 8.0 78.1 1011.7 4.5 S 12.0 WSW 0.0 4.3
04:45 8.1 77.0 1011.7 3.1 SE 12.7 SE 0.0 7.0
Máxima 8.1 98.5 1012.1 9.2 WSW 26.5 SW 0.0 7.0
Mínima 6.5 77.0 1011.5
Total 0.0